FW7930 Weather Reports


time (UTC)temp
C
wind
direction
speed
KPH
gust
KPH
rain 1hr
cm
rain 24hr
cm
rain mn
cm
humidity
%
barometer
mb
20260504214600 22 193 6.4 22.5 0.00 0.00 0.00 37 1008.9
20260504213125 22 186 6.4 24.1 0.00 0.00 0.00 38 1008.8
20260504211556 22 121 6.4 17.7 0.00 0.00 0.00 39 1008.9
20260504210052 22 126 6.4 22.5 0.00 0.00 0.00 38 1008.9
20260504204554 22 138 9.7 19.3 0.00 0.00 0.00 38 1008.9
20260504203059 22 153 6.4 20.9 0.00 0.00 0.00 39 1009.1
20260504201545 22 113 6.4 19.3 0.00 0.00 0.00 38 1009.4
20260504201543 22 123 6.4 19.3 0.00 0.00 0.00 38 1009.4
20260504200044 22 282 0.0 14.5 0.00 0.00 0.00 39 1009.7
20260504194555 22 202 1.6 14.5 0.00 0.00 0.00 39 1009.9
20260504193043 22 5 1.6 12.9 0.00 0.00 0.00 40 1010.2
20260504191533 22 161 4.8 12.9 0.00 0.00 0.00 41 1010.4
20260504190128 21 105 4.8 16.1 0.00 0.00 0.00 41 1010.6
20260504184526 21 148 8.0 25.7 0.00 0.00 0.00 41 1010.9
20260504183025 20 139 3.2 24.1 0.00 0.00 0.00 43 1011.2
20260504181522 21 177 6.4 22.5 0.00 0.00 0.00 40 1011.4
20260504180018 20 173 4.8 16.1 0.00 0.00 0.00 43 1011.5
20260504174517 20 170 4.8 14.5 0.00 0.00 0.00 42 1011.6
20260504173023 20 130 0.0 11.3 0.00 0.00 0.00 41 1011.7
20260504171518 20 171 6.4 16.1 0.00 0.00 0.00 41 1012.0
20260504140106 15 144 3.2 11.3 0.00 0.00 0.00 53 1013.8
20260504081506 3 269 0.0 0.0 0.00 0.00 0.00 84 1015.0
20260504044557 4 269 0.0 0.0 0.00 0.00 0.00 77 1015.3
20260504043045 4 269 0.0 0.0 0.00 0.00 0.00 77 1015.2
20260504041542 4 269 0.0 0.0 0.00 0.00 0.00 77 1015.2
20260504040041 4 271 0.0 0.0 0.00 0.00 0.00 75 1015.0
20260504034550 5 271 0.0 0.0 0.00 0.00 0.00 75 1014.8
20260504033050 5 271 0.0 0.0 0.00 0.00 0.00 71 1015.0
20260504031537 5 271 0.0 0.0 0.00 0.00 0.00 70 1014.9
20260504030037 6 271 0.0 0.0 0.00 0.00 0.00 69 1014.8
20260504024515 6 271 0.0 0.0 0.00 0.00 0.00 67 1014.8
20260504023008 6 271 0.0 0.0 0.00 0.00 0.00 65 1014.7
20260504021537 7 271 0.0 0.0 0.00 0.00 0.00 63 1014.7
20260504020036 7 271 0.0 0.0 0.00 0.00 0.00 63 1014.7
20260504014536 8 271 0.0 0.0 0.00 0.00 0.00 58 1014.6
20260504013037 8 271 0.0 0.0 0.00 0.00 0.00 57 1014.6
20260504011533 9 271 0.0 0.0 0.00 0.00 0.00 55 1014.4
20260504010046 10 271 0.0 0.0 0.00 0.00 0.00 50 1014.3
20260504004529 10 271 0.0 4.8 0.00 0.00 0.00 51 1014.2
20260504003028 11 286 0.0 0.0 0.00 0.00 0.00 45 1014.0
20260504001528 12 286 0.0 0.0 0.00 0.00 0.00 43 1013.9
20260504000027 12 286 0.0 0.0 0.00 0.00 0.00 39 1013.8
20260503234555 13 286 0.0 0.0 0.00 0.00 0.00 39 1013.7
20260503233055 13 286 0.0 6.4 0.00 0.00 0.00 39 1013.6
20260503231654 13 328 0.0 12.9 0.00 0.00 0.00 37 1013.3
20260503230052 13 40 1.6 12.9 0.00 0.00 0.00 36 1013.3
20260503224550 14 5 0.0 6.4 0.00 0.00 0.00 36 1013.4
20260503223050 14 349 3.2 19.3 0.00 0.00 0.00 35 1013.4
20260503221547 15 348 3.2 11.3 0.00 0.00 0.00 36 1013.4
20260503220104 15 344 0.0 8.0 0.00 0.00 0.00 37 1013.5